Location: Coed Ely
(51.5661°N, 3.4150°W)
Time: 23:53:57
(UTC+00:00)

CSL-04 Debris - Pass Details

Date: 28 January 2021
Orbit: 827 x 847 km, 98.9° (Epoch: 01 March)

Event Time Altitude Azimuth Distance (km) Brightness Sun altitude
Rises 18:56:47 0° 159° (SSE) 3,357 7.2 -18.6°
Reaches altitude 10° 18:59:07 10° 158° (SSE) 2,428 6.4 -19.0°
Maximum altitude 19:04:30 82° 72° (ENE) 844 4.0 -19.8°
Drops below altitude 10° 19:09:55 10° 346° (NNW) 2,447 6.7 -20.6°
Sets 19:12:17 0° 345° (NNW) 3,386 7.5 -21.0°
